Printer-friendly version

IAU Minor Planet Center

Minor Planet Center

MPEC 2005-V08 : 2005 UW64

The following Minor Planet Electronic Circular may be linked-to from your own Web pages, but must not otherwise be redistributed electronically.


Read MPEC 2005-V07 Read MPEC 2005-V09


M.P.E.C. 2005-V08                                Issued 2005 Nov. 1, 18:41 UT

     The Minor Planet Electronic Circulars contain information on unusual
         minor planets and routine data on comets.  They are published
   on behalf of Commission 20 of the International Astronomical Union by the
          Minor Planet Center, Smithsonian Astrophysical Observatory,
                          Cambridge, MA 02138, U.S.A.

                  Supported in part by the Brinson Foundation
                  Supported in part by the TABASGO Foundation
             Prepared using the Tamkin Foundation Computer Network

                              MPC@CFA.HARVARD.EDU
          URL http://cfa-www.harvard.edu/iau/mpc.html  ISSN 1523-6714

                                   2005 UW64

Observations:
     K05U64W* C2005 10 31.37108 04 29 39.40 +17 36 31.8          20.1 V EV008G96
     K05U64W  C2005 10 31.37501 04 29 39.08 +17 36 29.9          20.4 V EV008G96
     K05U64W  C2005 10 31.37897 04 29 38.79 +17 36 28.1          20.4 V EV008G96
     K05U64W  C2005 10 31.38301 04 29 38.50 +17 36 26.3          20.1 V EV008G96
     K05U64W  C2005 11 01.37956 04 28 25.71 +17 28 18.6          20.5 V EV008G96
     K05U64W  C2005 11 01.38756 04 28 25.10 +17 28 14.7          20.6 V EV008G96
     K05U64W  C2005 11 01.39561 04 28 24.49 +17 28 10.7          20.8 V EV008G96
     K05U64W  C2005 11 01.40363 04 28 23.84 +17 28 06.9          20.8 V EV008G96
     K05U64W  C2005 11 01.48897 04 28 17.25 +17 27 24.4          20.6 V EV008G96
     K05U64W  C2005 11 01.49326 04 28 16.89 +17 27 22.2          20.5 V EV008G96
     K05U64W  C2005 11 01.49759 04 28 16.57 +17 27 20.0          21.1 V EV008G96
     K05U64W  C2005 11 01.50192 04 28 16.24 +17 27 18.2          20.6 V EV008G96

Observer details:
G96 Mt. Lemmon Survey.  Observer S. M. Larson.  Measurers E. C. Beshore,
    E. J. Christensen, G. J. Garradd, A. D. Grauer, R. E. Hill, R. A. Kowalski,
    S. M. Larson, R. H. McNaught.  1.5-m reflector + CCD.

Orbital elements:
2005 UW64
Epoch 2005 Aug. 18.0 TT = JDT 2453600.5                 MPC
M  23.71785              (2000.0)            P               Q
n   0.32683660     Peri.  104.07380     +0.71773869     +0.69422994
a   2.0872874      Node   212.01330     -0.67160213     +0.66979145
e   0.4213688      Incl.    5.82634     -0.18385253     +0.26348471
P   3.02           H   18.7           G   0.15           U   9
Residuals in seconds of arc
051031 G96  0.1+  0.1-    051101 G96  0.1-  0.0     051101 G96  0.2+  0.0
051031 G96  0.2-  0.1-    051101 G96  0.0   0.0     051101 G96  0.2-  0.1-
051031 G96  0.1-  0.0     051101 G96  0.3+  0.1-    051101 G96  0.0   0.1-
051031 G96  0.2+  0.2+    051101 G96  0.1-  0.1+    051101 G96  0.0   0.3+

Ephemeris:
2005 UW64                a,e,i = 2.09, 0.42, 6                   q = 1.2078
Date    TT    R. A. (2000) Decl.     Delta      r     Elong.  Phase     V
2005 10 27    04 34.56   +18 11.7    0.873    1.774   143.7    19.4    20.6
2005 11 06    04 22.44   +16 50.4    0.877    1.829   156.5    12.5    20.5
2005 11 16    04 08.25   +15 29.7    0.903    1.884   169.2     5.6    20.3
2005 11 26    03 54.25   +14 17.9    0.954    1.937   172.7     3.7    20.4
2005 12 06    03 42.39   +13 22.6    1.031    1.990   161.5     9.0    20.9
2005 12 16    03 33.97   +12 48.2    1.131    2.042   149.7    14.1    21.3
2005 12 26    03 29.38   +12 34.9    1.252    2.093   138.5    18.1    21.7

Kyle E. Smalley              (C) Copyright 2005 MPC           M.P.E.C. 2005-V08

Read MPEC 2005-V07 Read MPEC 2005-V09


Our Web policy. Index to the CBAT/MPC/ICQ pages.


Valid HTML 4.01!